SCP
1 0 0 0 0 0 0 0 0 0 0 0 0 0 0 0 0 0 0 0 0 0 0 0 0 0 0 0 0 1 2 2 1 1 1 0 1 1 0 0 0 0 0
1 0 0 0 0 0 0 0 0 0 0 0 0 0 0 0 0 0 0 0 1 1 0 0 0 0 0 0 0 0 0 1 2 2 1 1 1 1 1 0 0 0 0
0 0 0 0 0 0 0 0 0 0 0 0 0 0 0 0 0 0 0 0 0 1 0 0 0 0 0 0 0 0 0 1 2 2 2 1 1 1 1 1 1 0 0
0 0 0 0 0 0 0 0 0 0 0 0 0 0 0 0 0 0 0 0 0 0 0 0 0 0 0 0 0 0 0 0 1 1 2 2 1 1 1 1 1 0 0
0 1 0 0 0 0 0 0 0 0 0 0 0 0 0 0 0 0 0 0 0 0 0 0 0 0 0 0 0 0 0 0 1 1 1 1 2 1 1 1 1 1 0
0 1 0 0 1 0 0 0 0 0 0 0 0 0 0 0 0 0 0 0 0 0 0 0 0 0 0 0 0 0 0 0 0 1 1 1 2 1 1 1 1 1 1
1 1 1 1 0 0 0 0 0 0 0 0 0 0 0 0 0 0 0 0 0 0 0 0 0 0 0 0 0 0 0 0 0 0 1 1 1 1 1 1 1 1 1
1 1 2 1 1 0 0 0 0 0 0 0 0 0 0 0 0 0 0 0 0 0 0 0 0 0 0 0 0 0 0 0 0 0 0 1 1 1 1 1 1 1 1
1 1 1 1 0 0 0 0 0 0 0 0 0 0 0 0 0 0 0 0 0 0 0 0 0 0 0 0 0 0 0 0 0 0 1 1 1 1 0 1 1 1 1
2 1 2 0 0 0 0 0 0 0 0 0 0 0 0 0 0 0 0 0 0 0 0 0 0 0 0 0 0 0 0 0 0 0 0 1 1 1 0 1 1 0 1
2 1 1 0 0 0 0 0 0 0 0 0 0 0 0 0 0 0 0 0 0 0 0 0 0 0 0 0 0 0 0 0 0 0 0 0 0 0 0 1 0 0 0
1 2 0 1 0 0 0 0 0 0 0 0 0 0 0 0 0 0 0 0 0 0 0 0 0 0 0 0 0 0 0 0 0 0 0 0 0 0 0 0 0 0 0
1 2 2 1 0 0 0 0 0 0 0 0 0 0 0 0 0 0 0 0 0 0 0 0 -0 0 0 0 0 0 0 0 0 0 0 0 0 0 0 0 0 0 1
0 2 1 0 0 0 0 0 0 0 0 0 0 0 0 0 0 0 0 0 0 0 0 0 0 0 0 0 0 0 0 0 0 0 0 0 0 0 0 1 0 0 0
0 0 0 0 0 0 0 0 0 0 0 0 0 0 0 0 0 0 0 0 0 0 0 0 0 0 0 0 0 0 0 0 0 0 0 0 0 -0 -0 -0 -0 0 0
0 0 0 0 0 0 0 0 0 0 0 0 0 0 0 0 0 0 0 0 0 0 0 0 0 0 0 0 0 0 0 0 0 -0 -0 -0 -0 -0 -0 -0 -0 -0 -0
0 0 0 0 0 0 0 0 0 0 0 0 0 0 0 0 0 0 0 0 0 0 0 0 0 0 0 0 0 0 0 0 0 -0 -0 -0 -0 -0 -0 -0 -0 -0 0
0 0 0 0 0 0 -0 0 0 0 0 0 0 0 0 0 0 0 0 0 0 0 0 0 0 0 0 0 0 0 0 0 0 -0 -0 -0 -0 -0 -0 -0 -0 -0 -0
0 0 0 0 0 0 0 0 0 -0 -0 -0 -0 -0 -0 0 0 0 -0 -0 0 0 0 0 0 0 0 0 0 0 0 0 0 -0 -0 -0 -0 -0 -0 -0 -0 -0 -0
0 0 0 0 -0 0 -0 -0 0 -0 -0 0 0 0 0 0 0 0 0 -0 0 0 0 0 0 0 0 0 0 0 0 0 0 0 0 -0 -0 -0 -0 -0 -0 -0 -0
0 0 0 0 0 0 -0 0 0 0 0 0 0 0 0 0 0 0 0 0 0 0 0 0 0 0 0 0 0 0 0 0 0 0 0 0 0 0 -0 -0 -0 -0 -0
0 0 0 0 0 -0 -0 0 0 0 0 0 0 0 0 0 0 -0 0 -0 0 0 0 0 0 0 0 0 0 0 0 0 0 -0 0 0 0 -0 -0 -0 -0 -0 0
0 0 0 0 -0 0 0 0 0 0 0 0 0 0 0 0 0 0 0 0 0 0 0 0 0 0 0 0 0 0 0 0 0 0 0 0 0 0 0 -0 -0 -0 -0
0 0 0 0 -0 0 0 0 -0 0 0 0 0 0 -0 0 0 0 0 0 0 0 0 0 0 -0 -0 0 0 0 0 0 0 0 -0 -0 0 0 -0 -0 0 0 0
0 0 0 -0 -0 0 -0 0 0 0 -0 -0 0 0 -0 0 0 0 0 0 0 0 0 -0 0 0 0 0 0 0 -0 0 0 0 0 0 -0 -0 0 0 0 0 0
0 0 0 0 -0 0 -0 -0 0 -0 -0 -0 -0 -0 -0 0 0 0 0 0 0 -0 -0 -0 0 0 0 0 0 0 0 -0 0 0 0 0 0 0 0 0 -0 -0 -0
Wind_Speed_500mb
23 25 26 28 29 28 33 44 41 40 46 45 41 41 44 45 51 50 49 55 56 51 50 45 38 40 39 37 33 32 29 26 34 38 45 46 44 39 38 39 36 33 31
36 28 26 24 29 34 41 49 40 41 45 45 46 48 50 52 48 46 48 48 47 47 43 34 41 40 37 38 44 41 36 33 30 34 44 45 48 46 45 45 43 40 37
31 34 33 25 28 41 54 41 40 44 42 42 46 51 49 46 49 48 44 57 49 43 36 40 37 36 32 34 40 43 43 41 40 35 34 46 51 50 48 47 46 46 44
12 31 40 41 40 51 43 40 43 42 48 56 46 42 37 40 43 48 49 32 42 43 33 34 30 32 40 45 47 49 46 46 47 43 41 39 48 53 53 50 48 49 50
30 27 43 36 45 42 40 43 43 51 65 50 49 47 45 34 37 35 44 45 36 41 46 44 40 43 45 51 53 57 57 53 51 50 45 45 42 49 53 53 52 51 53
35 31 43 41 39 45 41 46 55 57 47 42 45 50 53 49 39 47 41 36 37 34 31 30 41 48 45 43 46 49 43 40 49 48 45 44 45 43 50 52 52 52 51
33 43 44 35 52 45 43 52 53 47 46 50 62 53 52 45 45 41 38 43 40 35 25 30 35 42 36 37 46 44 43 41 42 44 45 41 37 38 38 48 50 47 50
30 30 39 49 38 48 54 42 39 52 57 52 42 53 40 40 27 5 11 28 29 26 30 37 47 52 44 37 28 20 33 39 36 39 40 43 38 36 36 38 41 47 45
46 40 45 40 42 51 47 45 46 40 35 34 25 32 20 13 37 20 12 14 12 21 27 25 31 35 39 32 28 24 22 24 28 35 37 38 40 37 38 37 39 41 48
33 28 35 40 49 52 49 43 36 43 42 44 35 34 32 40 26 39 32 21 24 16 24 26 31 32 23 19 19 18 17 11 19 22 25 34 40 43 42 42 39 39 37
25 43 39 47 52 55 54 42 45 44 40 40 38 40 45 37 31 29 43 29 25 20 17 22 30 26 21 16 10 11 11 20 26 27 28 32 33 39 49 44 42 47 34
40 40 46 51 52 59 43 46 44 47 43 40 37 39 42 40 36 29 31 35 32 34 31 23 31 29 20 15 13 18 16 19 22 24 26 28 31 35 42 51 47 45 54
47 35 47 46 51 49 45 47 46 41 35 36 39 38 34 31 34 36 36 38 43 44 44 33 24 28 22 19 15 17 12 15 16 18 20 20 23 24 31 44 46 40 40
40 43 47 48 51 44 44 45 38 38 34 34 35 32 30 31 33 34 32 34 25 25 22 18 23 22 18 11 16 12 11 6 10 18 23 22 27 24 23 39 37 34 30
49 38 52 41 44 46 49 38 39 34 33 31 29 26 27 26 22 21 23 27 23 9 9 8 10 16 9 11 9 9 4 8 7 2 10 17 24 8 17 36 37 35 24
46 55 45 47 47 48 36 33 31 30 29 26 26 25 24 23 24 24 22 19 18 19 9 6 12 3 19 9 10 5 10 13 14 8 2 3 18 42 46 33 44 57 75
60 53 45 52 52 36 32 29 28 27 23 25 24 24 23 19 20 14 16 19 20 20 17 12 3 23 26 8 14 36 35 35 42 26 20 20 27 27 40 47 46 49 52
52 49 55 50 44 22 25 22 28 25 25 27 27 17 23 24 24 17 8 8 15 20 18 16 23 34 21 36 49 52 55 53 53 46 46 48 45 43 39 38 36 38 34
47 41 43 33 25 16 20 22 23 24 23 25 26 26 23 22 16 16 17 9 11 20 21 22 39 37 35 39 35 41 46 55 54 53 45 45 47 45 44 44 41 41 40
38 34 35 26 21 19 17 19 23 28 27 23 21 20 19 16 15 15 7 15 23 25 30 25 49 40 38 42 40 40 52 54 55 50 45 40 42 47 47 48 47 44 43
28 28 25 20 19 17 20 23 24 23 20 21 25 25 23 10 13 18 20 26 26 31 31 38 47 46 46 52 53 55 61 62 57 48 51 44 43 45 43 44 41 37 36
24 23 25 22 21 17 19 24 22 21 28 32 29 25 26 23 19 27 25 25 24 25 37 48 42 42 38 48 51 42 52 52 53 43 37 31 33 46 43 43 39 39 36
27 27 28 23 20 20 22 18 13 19 33 26 28 27 31 32 27 30 31 26 30 26 29 28 35 33 37 53 56 55 52 52 49 31 26 40 39 45 41 38 33 30 28
30 28 26 23 22 24 19 29 29 31 32 33 31 31 33 31 34 38 36 33 28 26 29 32 37 58 60 50 46 43 45 48 41 30 26 43 38 45 39 39 35 32 33
25 26 25 25 25 25 21 28 23 32 35 43 40 36 37 33 30 28 29 32 33 34 36 50 65 58 52 46 45 40 36 40 40 32 22 41 39 43 36 35 35 33 33
26 25 26 31 29 26 21 22 37 36 41 44 48 50 40 35 36 33 37 48 55 59 73 62 57 48 42 33 28 31 29 33 36 36 17 41 45 48 45 36 34 33 35
Wind_Direction_500mb
322 299 305 331 301 318 311 297 322 312 301 309 304 294 285 282 276 274 266 279 287 291 286 285 288 295 281 274 276 275 275 269 256 246 241 242 238 240 243 243 243 240 236
322 313 309 301 329 311 292 314 315 312 307 308 307 299 293 285 279 278 271 270 266 280 275 277 292 291 283 282 275 272 270 268 259 254 247 243 238 240 239 240 241 242 243
314 313 328 318 317 299 309 327 310 306 307 290 287 282 281 287 285 278 279 263 263 271 282 288 293 283 282 280 279 277 268 264 263 259 254 247 243 243 242 239 239 240 242
316 307 303 318 302 310 315 317 317 307 294 305 314 303 299 294 286 286 276 278 263 248 269 286 284 279 282 285 281 277 275 266 260 256 257 254 246 243 241 242 240 242 242
295 287 292 300 304 313 314 314 299 298 309 307 305 302 288 294 276 277 278 273 281 274 266 265 272 277 282 283 278 276 278 268 260 254 254 254 250 243 241 241 240 240 242
307 281 291 317 303 305 312 301 301 308 309 305 303 297 299 286 277 273 276 274 273 267 261 271 271 280 285 281 276 271 266 268 254 254 250 254 249 248 243 241 242 243 241
286 302 317 296 304 307 294 303 310 304 299 299 300 301 298 293 278 271 273 272 265 263 257 263 271 271 277 274 268 264 261 267 248 250 246 248 249 247 244 242 242 244 243
301 301 289 295 307 291 298 313 295 302 301 300 301 301 309 305 295 328 278 254 257 273 270 275 281 275 274 279 273 248 248 253 246 254 248 247 248 247 243 238 240 243 242
301 312 300 313 292 294 305 294 301 300 304 307 306 296 310 296 306 280 329 317 296 290 278 278 291 283 269 259 258 246 261 244 246 249 247 246 243 245 246 244 241 243 243
317 310 310 290 290 292 309 307 296 300 294 292 294 292 291 281 293 301 282 310 301 277 305 296 299 287 280 264 266 263 254 257 257 252 253 249 250 245 245 243 243 237 243
283 306 295 289 289 299 310 296 305 302 294 296 292 294 294 296 284 270 284 288 296 275 320 330 327 310 283 284 283 256 243 230 271 263 265 262 258 251 243 243 244 230 226
311 303 293 294 297 308 294 299 303 300 297 293 291 290 291 279 281 271 280 282 280 289 303 305 327 328 291 276 276 259 261 265 266 269 270 268 269 264 246 237 237 230 228
314 288 294 303 302 301 295 301 307 304 301 296 295 292 291 282 278 281 276 284 289 284 293 297 313 302 302 280 253 252 266 272 276 277 276 280 272 282 248 230 231 229 225
300 306 299 301 296 302 306 311 311 307 302 301 301 295 289 288 279 271 275 272 271 278 296 314 310 313 310 270 251 246 258 270 295 289 294 301 307 297 228 205 211 213 222
310 294 302 297 304 314 315 310 308 309 304 305 306 295 289 289 286 282 269 258 254 257 277 300 346 6 228 228 214 251 254 236 289 313 49 34 42 7 202 194 191 193 178
307 310 305 307 313 318 314 309 306 309 306 308 308 307 304 292 283 272 267 256 244 231 232 300 346 188 164 217 141 178 166 190 169 180 174 329 77 113 126 134 146 149 137
314 311 317 318 314 315 312 313 321 320 311 315 316 304 302 302 300 292 265 251 250 226 225 242 347 158 159 172 172 132 132 136 123 126 117 101 99 123 112 112 113 108 107
320 326 319 323 323 319 319 332 339 336 328 318 311 306 297 291 272 275 259 242 225 199 201 178 161 151 136 139 128 123 115 111 105 96 95 101 104 103 106 108 112 124 131
324 332 331 338 342 338 339 344 335 335 327 320 311 306 290 284 279 238 240 222 188 175 156 150 141 135 131 132 118 116 110 109 109 105 96 98 101 105 107 106 106 105 106
338 343 341 357 356 358 360 350 348 340 332 331 326 316 289 252 218 214 242 179 158 156 147 143 141 133 137 129 138 131 118 107 105 102 100 101 106 105 105 105 105 108 111
352 360 353 7 9 16 0 6 355 352 18 3 15 6 20 193 175 202 171 156 159 158 160 159 148 137 132 127 121 114 108 102 92 93 95 95 104 104 105 104 106 107 110
19 29 18 11 24 24 20 7 38 34 48 34 29 38 56 117 121 142 143 158 155 173 146 146 150 144 137 134 117 115 104 99 98 90 101 102 112 109 105 104 104 108 107
23 31 30 38 36 26 19 35 39 11 20 41 38 64 82 97 118 126 124 129 139 152 161 141 147 137 130 117 109 101 95 92 103 111 113 108 113 108 105 102 105 105 109
25 28 33 34 30 33 27 17 34 46 59 46 58 69 85 97 113 127 131 139 147 152 164 147 128 118 109 105 100 98 109 111 110 110 108 105 113 105 103 100 100 104 103
31 35 39 40 38 40 29 43 51 69 63 67 66 73 81 96 105 121 122 124 120 124 124 121 118 118 111 109 117 117 111 109 111 111 109 115 111 99 93 95 99 98 98
36 38 40 45 42 50 39 39 50 74 67 71 68 73 80 94 107 115 119 120 117 118 121 122 121 114 107 105 118 129 129 118 122 119 111 109 111 100 89 85 88 87 93
Wind_Speed_850mb
23 25 26 28 29 28 33 44 41 40 46 45 41 41 44 45 51 50 49 55 56 51 50 45 38 40 39 37 33 32 29 26 34 38 45 46 44 39 38 39 36 33 31
36 28 26 24 29 34 41 49 40 41 45 45 46 48 50 52 48 46 48 48 47 47 43 34 41 40 37 38 44 41 36 33 30 34 44 45 48 46 45 45 43 40 37
31 34 33 25 28 41 54 41 40 44 42 42 46 51 49 46 49 48 44 57 49 43 36 40 37 36 32 34 40 43 43 41 40 35 34 46 51 50 48 47 46 46 44
12 31 40 41 40 51 43 40 43 42 48 56 46 42 37 40 43 48 49 32 42 43 33 34 30 32 40 45 47 49 46 46 47 43 41 39 48 53 53 50 48 49 50
30 27 43 36 45 42 40 43 43 51 65 50 49 47 45 34 37 35 44 45 36 41 46 44 40 43 45 51 53 57 57 53 51 50 45 45 42 49 53 53 52 51 53
35 31 43 41 39 45 41 46 55 57 47 42 45 50 53 49 39 47 41 36 37 34 31 30 41 48 45 43 46 49 43 40 49 48 45 44 45 43 50 52 52 52 51
33 43 44 35 52 45 43 52 53 47 46 50 62 53 52 45 45 41 38 43 40 35 25 30 35 42 36 37 46 44 43 41 42 44 45 41 37 38 38 48 50 47 50
30 30 39 49 38 48 54 42 39 52 57 52 42 53 40 40 27 5 11 28 29 26 30 37 47 52 44 37 28 20 33 39 36 39 40 43 38 36 36 38 41 47 45
46 40 45 40 42 51 47 45 46 40 35 34 25 32 20 13 37 20 12 14 12 21 27 25 31 35 39 32 28 24 22 24 28 35 37 38 40 37 38 37 39 41 48
33 28 35 40 49 52 49 43 36 43 42 44 35 34 32 40 26 39 32 21 24 16 24 26 31 32 23 19 19 18 17 11 19 22 25 34 40 43 42 42 39 39 37
25 43 39 47 52 55 54 42 45 44 40 40 38 40 45 37 31 29 43 29 25 20 17 22 30 26 21 16 10 11 11 20 26 27 28 32 33 39 49 44 42 47 34
40 40 46 51 52 59 43 46 44 47 43 40 37 39 42 40 36 29 31 35 32 34 31 23 31 29 20 15 13 18 16 19 22 24 26 28 31 35 42 51 47 45 54
47 35 47 46 51 49 45 47 46 41 35 36 39 38 34 31 34 36 36 38 43 44 44 33 24 28 22 19 15 17 12 15 16 18 20 20 23 24 31 44 46 40 40
40 43 47 48 51 44 44 45 38 38 34 34 35 32 30 31 33 34 32 34 25 25 22 18 23 22 18 11 16 12 11 6 10 18 23 22 27 24 23 39 37 34 30
49 38 52 41 44 46 49 38 39 34 33 31 29 26 27 26 22 21 23 27 23 9 9 8 10 16 9 11 9 9 4 8 7 2 10 17 24 8 17 36 37 35 24
46 55 45 47 47 48 36 33 31 30 29 26 26 25 24 23 24 24 22 19 18 19 9 6 12 3 19 9 10 5 10 13 14 8 2 3 18 42 46 33 44 57 75
60 53 45 52 52 36 32 29 28 27 23 25 24 24 23 19 20 14 16 19 20 20 17 12 3 23 26 8 14 36 35 35 42 26 20 20 27 27 40 47 46 49 52
52 49 55 50 44 22 25 22 28 25 25 27 27 17 23 24 24 17 8 8 15 20 18 16 23 34 21 36 49 52 55 53 53 46 46 48 45 43 39 38 36 38 34
47 41 43 33 25 16 20 22 23 24 23 25 26 26 23 22 16 16 17 9 11 20 21 22 39 37 35 39 35 41 46 55 54 53 45 45 47 45 44 44 41 41 40
38 34 35 26 21 19 17 19 23 28 27 23 21 20 19 16 15 15 7 15 23 25 30 25 49 40 38 42 40 40 52 54 55 50 45 40 42 47 47 48 47 44 43
28 28 25 20 19 17 20 23 24 23 20 21 25 25 23 10 13 18 20 26 26 31 31 38 47 46 46 52 53 55 61 62 57 48 51 44 43 45 43 44 41 37 36
24 23 25 22 21 17 19 24 22 21 28 32 29 25 26 23 19 27 25 25 24 25 37 48 42 42 38 48 51 42 52 52 53 43 37 31 33 46 43 43 39 39 36
27 27 28 23 20 20 22 18 13 19 33 26 28 27 31 32 27 30 31 26 30 26 29 28 35 33 37 53 56 55 52 52 49 31 26 40 39 45 41 38 33 30 28
30 28 26 23 22 24 19 29 29 31 32 33 31 31 33 31 34 38 36 33 28 26 29 32 37 58 60 50 46 43 45 48 41 30 26 43 38 45 39 39 35 32 33
25 26 25 25 25 25 21 28 23 32 35 43 40 36 37 33 30 28 29 32 33 34 36 50 65 58 52 46 45 40 36 40 40 32 22 41 39 43 36 35 35 33 33
26 25 26 31 29 26 21 22 37 36 41 44 48 50 40 35 36 33 37 48 55 59 73 62 57 48 42 33 28 31 29 33 36 36 17 41 45 48 45 36 34 33 35
Wind_Direction_850mb
322 299 305 331 301 318 311 297 322 312 301 309 304 294 285 282 276 274 266 279 287 291 286 285 288 295 281 274 276 275 275 269 256 246 241 242 238 240 243 243 243 240 236
322 313 309 301 329 311 292 314 315 312 307 308 307 299 293 285 279 278 271 270 266 280 275 277 292 291 283 282 275 272 270 268 259 254 247 243 238 240 239 240 241 242 243
314 313 328 318 317 299 309 327 310 306 307 290 287 282 281 287 285 278 279 263 263 271 282 288 293 283 282 280 279 277 268 264 263 259 254 247 243 243 242 239 239 240 242
316 307 303 318 302 310 315 317 317 307 294 305 314 303 299 294 286 286 276 278 263 248 269 286 284 279 282 285 281 277 275 266 260 256 257 254 246 243 241 242 240 242 242
295 287 292 300 304 313 314 314 299 298 309 307 305 302 288 294 276 277 278 273 281 274 266 265 272 277 282 283 278 276 278 268 260 254 254 254 250 243 241 241 240 240 242
307 281 291 317 303 305 312 301 301 308 309 305 303 297 299 286 277 273 276 274 273 267 261 271 271 280 285 281 276 271 266 268 254 254 250 254 249 248 243 241 242 243 241
286 302 317 296 304 307 294 303 310 304 299 299 300 301 298 293 278 271 273 272 265 263 257 263 271 271 277 274 268 264 261 267 248 250 246 248 249 247 244 242 242 244 243
301 301 289 295 307 291 298 313 295 302 301 300 301 301 309 305 295 328 278 254 257 273 270 275 281 275 274 279 273 248 248 253 246 254 248 247 248 247 243 238 240 243 242
301 312 300 313 292 294 305 294 301 300 304 307 306 296 310 296 306 280 329 317 296 290 278 278 291 283 269 259 258 246 261 244 246 249 247 246 243 245 246 244 241 243 243
317 310 310 290 290 292 309 307 296 300 294 292 294 292 291 281 293 301 282 310 301 277 305 296 299 287 280 264 266 263 254 257 257 252 253 249 250 245 245 243 243 237 243
283 306 295 289 289 299 310 296 305 302 294 296 292 294 294 296 284 270 284 288 296 275 320 330 327 310 283 284 283 256 243 230 271 263 265 262 258 251 243 243 244 230 226
311 303 293 294 297 308 294 299 303 300 297 293 291 290 291 279 281 271 280 282 280 289 303 305 327 328 291 276 276 259 261 265 266 269 270 268 269 264 246 237 237 230 228
314 288 294 303 302 301 295 301 307 304 301 296 295 292 291 282 278 281 276 284 289 284 293 297 313 302 302 280 253 252 266 272 276 277 276 280 272 282 248 230 231 229 225
300 306 299 301 296 302 306 311 311 307 302 301 301 295 289 288 279 271 275 272 271 278 296 314 310 313 310 270 251 246 258 270 295 289 294 301 307 297 228 205 211 213 222
310 294 302 297 304 314 315 310 308 309 304 305 306 295 289 289 286 282 269 258 254 257 277 300 346 6 228 228 214 251 254 236 289 313 49 34 42 7 202 194 191 193 178
307 310 305 307 313 318 314 309 306 309 306 308 308 307 304 292 283 272 267 256 244 231 232 300 346 188 164 217 141 178 166 190 169 180 174 329 77 113 126 134 146 149 137
314 311 317 318 314 315 312 313 321 320 311 315 316 304 302 302 300 292 265 251 250 226 225 242 347 158 159 172 172 132 132 136 123 126 117 101 99 123 112 112 113 108 107
320 326 319 323 323 319 319 332 339 336 328 318 311 306 297 291 272 275 259 242 225 199 201 178 161 151 136 139 128 123 115 111 105 96 95 101 104 103 106 108 112 124 131
324 332 331 338 342 338 339 344 335 335 327 320 311 306 290 284 279 238 240 222 188 175 156 150 141 135 131 132 118 116 110 109 109 105 96 98 101 105 107 106 106 105 106
338 343 341 357 356 358 360 350 348 340 332 331 326 316 289 252 218 214 242 179 158 156 147 143 141 133 137 129 138 131 118 107 105 102 100 101 106 105 105 105 105 108 111
352 360 353 7 9 16 0 6 355 352 18 3 15 6 20 193 175 202 171 156 159 158 160 159 148 137 132 127 121 114 108 102 92 93 95 95 104 104 105 104 106 107 110
19 29 18 11 24 24 20 7 38 34 48 34 29 38 56 117 121 142 143 158 155 173 146 146 150 144 137 134 117 115 104 99 98 90 101 102 112 109 105 104 104 108 107
23 31 30 38 36 26 19 35 39 11 20 41 38 64 82 97 118 126 124 129 139 152 161 141 147 137 130 117 109 101 95 92 103 111 113 108 113 108 105 102 105 105 109
25 28 33 34 30 33 27 17 34 46 59 46 58 69 85 97 113 127 131 139 147 152 164 147 128 118 109 105 100 98 109 111 110 110 108 105 113 105 103 100 100 104 103
31 35 39 40 38 40 29 43 51 69 63 67 66 73 81 96 105 121 122 124 120 124 124 121 118 118 111 109 117 117 111 109 111 111 109 115 111 99 93 95 99 98 98
36 38 40 45 42 50 39 39 50 74 67 71 68 73 80 94 107 115 119 120 117 118 121 122 121 114 107 105 118 129 129 118 122 119 111 109 111 100 89 85 88 87 93